GFSMW_925_spd_021.txt.gz
Wind_Speed
13 17 14 25 33 38 38 36 33 29 24 23 20 14 16 17 18 16 13 14 11 7 3 2 5 8 9 11 12 14 15 16 11 10 16 16 9 13 14 15 16 17 16
8 15 15 20 32 35 36 35 33 29 21 25 22 19 20 21 16 13 13 12 10 6 5 6 6 8 11 10 11 14 16 11 8 9 11 3 10 10 17 16 17 14 16
13 9 17 16 31 33 34 35 34 27 22 23 22 23 23 24 21 18 15 9 6 6 4 2 2 4 6 9 12 12 8 7 9 8 5 3 1 4 3 10 11 16 17
12 11 16 20 29 29 23 27 26 26 26 20 27 33 30 23 19 19 14 12 10 6 3 2 5 8 12 13 13 14 14 12 5 5 5 9 7 1 4 9 9 16 20
16 13 15 25 26 27 25 21 26 22 20 29 24 23 27 26 26 21 16 9 5 2 1 5 8 12 11 12 13 13 5 3 5 8 10 10 7 10 2 2 9 15 15
10 10 22 23 22 22 25 22 25 21 20 23 26 28 29 26 22 15 10 6 3 2 2 5 9 9 11 12 11 4 6 6 8 11 6 7 4 3 3 2 4 11 17
12 13 12 19 25 28 28 27 25 23 21 23 26 27 25 19 15 10 7 6 4 1 4 8 9 10 12 12 9 10 11 11 12 8 9 9 9 5 6 6 8 4 17
12 13 16 22 26 24 22 23 25 23 20 20 20 18 16 14 11 10 8 6 3 1 5 6 9 10 11 12 13 13 11 13 9 10 10 10 8 12 7 5 6 3 4
10 12 17 26 27 23 21 20 24 22 20 19 18 15 12 11 13 10 7 6 2 1 4 7 9 10 12 11 12 11 10 11 11 10 11 12 12 10 7 8 9 6 3
12 13 16 24 29 28 24 20 25 26 23 21 17 13 12 13 11 9 8 4 2 4 5 7 9 12 13 11 10 7 7 9 15 12 10 5 7 10 11 9 10 12 16
14 15 17 26 32 32 30 25 26 28 25 23 17 12 12 13 11 10 8 6 4 4 5 8 10 13 15 10 7 8 11 11 13 7 6 7 10 10 9 12 8 7 13
15 15 21 26 28 32 33 29 27 31 29 23 16 15 14 16 12 11 8 7 7 5 6 8 11 12 7 10 14 13 13 10 2 2 5 4 7 10 9 9 11 13 18
13 14 15 23 28 30 34 32 29 32 29 22 18 17 17 16 14 10 9 8 8 8 9 9 11 14 12 13 9 6 4 4 5 5 6 7 9 8 9 10 15 16 17
15 14 13 19 27 31 34 35 29 31 29 23 21 19 20 20 17 10 6 7 10 10 9 13 13 16 15 11 9 8 4 5 6 8 6 8 6 9 13 14 13 14 14
3 8 14 11 21 23 28 33 31 30 28 27 19 18 19 20 13 5 4 4 7 10 15 16 17 14 14 12 11 10 10 8 7 7 9 10 11 12 12 9 11 11 15
7 6 9 14 20 23 26 31 33 31 28 25 17 12 17 14 9 3 9 14 12 16 19 18 15 15 14 13 13 12 10 6 6 6 10 11 10 8 5 5 6 10 15
7 7 7 13 18 25 32 32 33 32 29 20 17 17 16 10 6 10 8 12 15 17 15 15 13 13 12 13 11 10 8 7 6 6 10 10 9 11 9 13 17 19 18
7 6 4 8 20 27 30 31 31 31 23 20 19 14 10 9 8 9 14 13 15 17 14 14 14 15 14 10 10 11 9 7 6 7 10 10 11 13 14 17 17 19 17
4 2 1 5 12 21 25 27 28 23 24 24 21 15 9 9 6 11 12 15 14 14 14 15 16 12 11 10 12 11 9 7 8 9 10 9 10 12 11 14 18 20 19
20 23 25 24 18 15 29 32 28 29 25 22 20 13 11 4 9 10 14 14 15 17 17 16 11 10 9 10 12 12 10 10 8 9 9 10 11 10 12 16 17 17 16
22 26 32 28 27 27 34 31 28 25 22 18 18 11 3 7 11 12 11 14 18 18 19 17 14 15 14 12 13 14 14 12 10 11 12 10 10 12 14 14 14 13 14
22 24 28 26 25 28 32 27 24 19 15 14 7 3 9 12 10 12 15 15 18 20 20 21 19 17 15 15 16 17 16 14 12 12 12 12 12 15 15 12 13 15 14
22 22 24 23 22 19 18 20 14 5 2 4 5 9 11 10 13 13 14 18 11 12 14 16 15 17 17 18 19 20 18 17 17 14 12 11 12 14 14 14 15 16 16
18 18 19 17 15 14 13 12 8 4 0 3 8 11 13 13 12 14 16 16 17 14 14 17 18 15 16 21 21 22 21 20 19 18 16 15 15 15 14 15 12 12 12
14 15 15 13 11 8 6 4 3 5 8 11 12 13 13 15 16 16 15 17 16 16 17 19 19 20 22 22 18 18 21 21 21 18 17 17 17 15 14 15 14 12 13
14 14 12 9 5 3 3 4 7 9 11 14 15 16 15 15 17 19 19 15 13 16 19 22 22 22 22 19 20 19 17 17 17 18 21 22 19 17 18 18 15 13 12

GFSMW_925_spd_024.txt.gz
Wind_Speed
20 31 35 34 33 37 40 38 36 34 32 31 25 20 19 20 16 16 15 13 12 12 8 4 1 2 7 9 10 9 11 12 8 5 9 7 3 9 12 12 10 12 12
11 21 29 31 34 40 37 37 38 39 36 30 26 20 19 19 19 19 16 14 11 8 5 4 4 5 6 6 6 9 8 4 7 5 3 2 5 5 12 8 10 11 10
17 13 26 29 31 32 38 40 39 38 32 27 25 20 21 24 23 22 17 13 9 6 4 3 2 0 3 5 6 6 5 4 1 4 1 1 2 2 1 3 5 6 9
12 12 18 25 32 37 39 37 38 35 30 28 31 30 30 26 26 24 19 14 9 7 7 5 1 2 5 6 7 8 7 2 2 2 3 0 4 3 2 1 0 5 7
16 15 20 29 29 35 37 37 35 32 27 32 30 33 33 29 25 21 19 15 12 9 6 2 2 6 6 7 8 6 3 3 2 2 5 7 5 5 3 2 4 4 8
8 7 19 24 26 31 32 31 32 28 28 25 27 36 34 28 27 24 20 15 12 7 3 3 7 8 7 9 7 3 5 7 7 7 5 3 3 5 4 3 5 5 3
12 13 12 18 22 26 29 30 26 21 24 26 28 31 30 31 30 25 19 16 12 7 4 6 6 6 7 7 5 6 8 8 8 5 5 7 9 7 6 5 4 2 4
12 13 15 20 25 30 32 32 32 24 23 27 25 29 28 27 22 17 14 11 9 5 3 3 6 7 8 8 7 9 10 6 5 6 9 9 11 9 7 3 3 2 3
12 13 15 20 26 29 33 35 33 28 25 26 26 23 20 17 15 13 10 10 6 3 2 4 6 8 10 10 10 9 10 10 10 12 14 13 9 7 3 8 7 3 2
9 12 18 23 27 33 32 31 31 31 28 26 24 21 17 14 13 11 9 7 4 2 3 4 7 9 11 9 12 7 8 9 11 11 11 11 8 8 6 6 5 6 3
15 16 19 27 32 35 35 35 34 33 31 28 26 22 19 17 14 12 11 8 5 5 7 5 6 9 10 11 6 7 11 12 12 9 6 8 8 9 7 8 10 7 7
17 17 23 26 27 32 35 40 39 37 36 33 29 25 21 18 17 15 14 12 10 8 9 6 7 9 10 10 10 10 10 12 7 5 5 6 5 8 10 9 8 9 10
13 13 13 21 27 30 33 37 40 39 37 34 30 26 23 23 22 18 18 16 13 11 10 9 9 9 10 13 15 13 11 6 5 4 5 6 7 10 9 9 10 10 10
10 12 11 17 25 28 28 25 29 37 38 36 32 29 25 25 23 21 19 16 13 12 11 10 13 13 13 16 16 15 11 8 7 6 5 6 6 8 9 10 8 9 11
7 7 8 8 17 19 21 23 33 37 39 38 33 30 26 24 24 18 15 10 7 4 9 14 17 17 16 16 19 17 14 12 8 6 7 8 10 10 9 8 8 7 10
3 9 9 11 15 20 25 27 33 36 37 37 34 28 26 25 21 17 9 6 5 8 14 18 21 19 19 17 19 17 15 12 10 9 10 11 12 12 10 9 8 9 12
6 4 8 13 17 23 31 33 36 35 35 32 27 24 23 26 19 14 9 7 6 12 16 18 17 16 15 16 18 17 14 13 12 11 10 10 11 12 11 10 11 12 15
6 5 2 12 21 27 31 29 28 30 29 26 22 27 27 21 16 14 10 3 11 15 16 15 15 17 16 16 18 16 15 14 13 11 11 12 12 12 12 12 14 15 18
8 11 14 11 3 10 15 19 21 21 22 22 20 19 19 19 13 8 5 5 10 12 13 15 17 18 18 15 17 18 17 15 13 11 12 13 13 12 12 12 14 19 20
15 16 19 22 23 20 25 30 28 29 26 24 23 20 16 12 9 3 7 12 8 12 15 17 16 15 14 14 16 18 18 16 15 13 12 13 14 13 11 12 15 18 16
17 20 24 26 23 22 28 31 28 26 24 20 12 10 7 8 3 8 10 9 12 15 16 17 18 16 19 20 18 19 20 20 17 16 14 13 14 13 12 11 14 14 14
17 20 24 23 23 23 27 24 24 17 9 4 6 10 4 3 7 10 12 12 12 14 11 12 15 14 16 22 22 20 22 20 20 20 17 13 13 14 13 13 14 14 16
15 18 22 22 19 16 14 17 13 5 1 1 2 2 7 11 10 12 13 12 14 14 15 16 17 17 16 19 22 24 24 25 25 23 19 16 14 13 14 15 14 16 18
14 15 16 17 18 16 15 12 8 4 1 1 5 9 11 12 12 12 13 15 17 20 21 22 21 20 17 18 20 22 27 31 30 26 22 20 18 17 16 16 16 16 16
16 17 17 15 12 10 8 6 4 6 8 9 11 13 14 15 17 17 17 19 19 20 23 23 22 24 26 25 22 22 23 26 32 29 24 22 22 22 21 19 17 17 17
15 13 11 11 8 7 6 6 8 11 12 15 17 18 19 20 20 21 24 23 22 21 19 20 22 27 29 29 27 24 24 22 22 24 26 27 27 27 25 22 20 17 18

GFSMW_925_spd_027.txt.gz
Wind_Speed
22 25 27 27 26 30 33 30 29 31 32 31 28 22 21 20 19 18 16 14 15 15 12 10 8 4 1 5 7 10 11 9 7 3 5 1 8 6 6 6 7 7 6
13 20 22 26 30 34 36 33 33 35 37 36 32 26 23 22 20 19 17 16 16 13 9 6 3 4 6 7 10 10 7 4 4 1 2 2 2 1 4 6 4 4 3
17 15 22 26 28 32 40 40 38 39 38 35 29 22 22 20 21 22 21 18 13 8 5 4 4 6 8 11 10 7 3 3 1 2 1 1 3 4 6 3 3 1 5
14 13 20 24 31 33 36 36 41 40 39 34 31 29 30 24 26 26 21 16 11 9 6 5 5 7 9 9 8 8 5 3 3 2 1 3 3 3 3 7 6 4 7
13 16 22 28 27 30 39 38 38 38 38 35 34 32 29 28 26 23 20 16 12 9 8 6 5 7 8 7 6 5 2 1 0 2 4 6 8 9 5 3 5 6 9
8 7 14 22 25 30 34 32 35 34 37 32 30 29 28 25 26 23 21 17 14 11 7 3 5 8 8 6 3 2 1 4 3 5 6 6 5 5 7 4 8 8 9
11 10 12 18 23 28 34 33 34 32 32 29 26 26 26 28 29 29 25 21 17 12 8 4 6 10 5 3 4 3 4 4 4 4 4 6 9 9 9 9 7 7 6
13 15 18 22 24 27 28 30 32 32 31 27 27 25 27 31 31 29 23 19 15 10 6 1 9 2 2 3 6 6 6 5 5 7 8 10 12 10 10 8 3 2 3
12 15 18 23 23 27 33 35 32 32 31 30 28 25 27 31 32 25 21 19 14 10 5 2 4 3 3 4 4 4 6 7 8 10 12 13 13 11 7 6 7 5 2
7 9 14 21 26 31 31 31 33 36 33 31 31 31 32 32 29 27 24 21 19 10 12 8 7 4 4 6 7 7 5 7 11 12 12 14 10 9 9 8 9 7 7
9 11 13 21 27 31 34 37 37 35 35 35 37 36 33 30 28 26 23 21 14 15 12 9 6 5 6 7 6 5 7 9 10 10 9 8 9 11 13 12 12 12 9
11 12 15 20 24 28 33 40 41 42 40 38 36 34 32 30 28 26 23 20 18 14 12 8 7 7 7 8 8 10 12 11 12 10 8 8 8 10 12 13 12 11 11
7 5 7 14 21 25 29 31 31 30 33 34 34 33 32 31 30 27 24 22 19 16 14 10 8 9 10 10 10 14 16 15 13 12 11 10 12 13 13 12 12 13 12
10 8 6 9 17 22 22 25 27 29 32 33 35 35 34 33 30 27 24 23 21 18 15 11 11 12 14 14 14 16 18 16 13 14 14 13 12 12 12 13 14 13 12
7 8 7 7 15 16 21 25 28 31 33 35 37 37 34 32 28 26 23 21 18 14 10 9 11 16 17 18 19 18 20 19 16 15 13 13 12 11 12 13 13 12 11
6 8 9 11 15 21 24 25 30 35 36 37 39 36 31 26 23 17 14 13 11 7 5 8 15 16 17 17 18 18 22 21 18 17 15 14 13 13 14 13 12 11 11
7 7 2 6 12 21 28 31 33 32 34 25 17 17 20 16 17 19 18 13 7 1 9 13 18 17 15 15 17 18 23 21 19 18 17 15 14 14 14 13 13 13 13
7 7 10 8 4 11 15 14 16 17 15 13 15 15 19 26 22 18 12 4 6 9 11 14 13 14 16 17 17 17 21 21 20 19 17 15 14 15 15 16 16 15 14
7 10 14 14 13 10 7 13 16 18 21 22 24 27 29 23 15 7 5 11 9 8 12 14 17 18 21 19 18 18 21 22 21 19 17 16 15 15 14 16 16 15 17
13 13 15 18 20 17 17 24 24 27 27 28 28 21 15 9 7 8 11 7 9 13 14 17 18 18 18 15 15 18 22 23 22 21 20 18 17 15 15 17 16 16 17
14 16 20 22 20 19 22 27 26 25 24 18 13 9 5 8 13 12 9 10 14 16 17 19 19 17 17 19 19 22 25 25 25 25 23 21 19 17 16 16 16 17 14
14 16 19 20 18 21 27 25 22 16 10 6 2 6 8 8 6 8 13 14 15 17 18 18 18 15 15 16 17 22 26 25 27 27 27 24 20 19 17 17 17 16 14
15 18 22 22 19 16 19 20 12 7 6 5 4 3 3 7 11 12 14 16 16 17 21 21 24 25 20 18 17 18 22 26 30 30 30 27 23 21 19 19 18 17 17
16 18 21 20 18 16 15 14 11 10 8 6 7 8 10 12 12 13 15 17 19 22 24 25 27 27 26 22 20 19 20 21 27 32 34 32 28 24 22 20 21 20 18
17 18 18 17 14 13 12 10 9 8 9 9 10 12 15 16 18 19 19 21 23 23 26 29 29 30 30 29 27 23 23 23 24 26 28 27 27 26 26 26 26 23 20
17 17 15 13 13 14 15 14 13 11 11 13 15 17 18 19 21 23 27 26 28 29 29 30 30 32 33 31 30 26 25 26 24 22 24 24 25 26 27 27 29 25 22

GFSMW_925_spd_030.txt.gz
Wind_Speed
16 17 23 26 28 27 28 28 28 26 26 24 26 26 23 18 17 15 15 16 17 16 15 13 10 7 4 4 2 3 5 6 5 3 3 3 5 5 5 6 4 3 2
8 14 21 26 31 32 32 31 31 31 32 31 30 27 25 22 19 18 16 15 17 16 14 11 8 7 5 4 3 4 6 4 4 2 3 3 2 0 3 4 3 1 1
12 12 18 28 32 35 38 38 38 36 35 36 34 25 24 20 20 20 19 19 18 15 11 10 8 7 4 2 4 6 6 5 4 3 3 2 2 4 5 5 3 3 3
9 10 17 23 29 29 33 37 41 37 35 36 35 32 30 24 21 25 23 21 17 15 12 10 8 5 4 5 8 9 8 6 3 1 0 2 3 2 3 4 7 8 7
13 13 17 23 25 33 35 34 30 31 34 35 36 33 29 26 23 26 24 21 18 15 13 11 6 4 6 7 9 8 7 4 2 2 3 5 7 8 4 3 6 10 10
11 11 19 20 25 26 31 28 25 34 35 36 34 35 31 25 26 27 26 23 20 18 14 10 7 5 9 5 6 4 2 0 2 5 5 5 4 4 7 5 9 8 12
12 11 12 18 23 28 30 31 38 30 36 36 39 32 26 28 30 33 31 28 25 21 17 11 4 3 5 5 3 2 4 4 4 5 5 6 9 11 11 11 7 6 6
12 14 15 22 24 27 29 26 33 30 34 36 35 30 29 29 31 37 35 33 29 24 18 12 4 2 6 2 3 4 6 7 6 7 9 10 12 14 14 12 6 2 4
10 14 13 22 23 28 31 33 32 32 36 34 32 32 30 32 36 39 36 32 26 23 19 8 6 3 4 3 4 5 8 9 9 10 11 13 13 15 14 12 11 8 2
7 7 9 17 21 27 28 32 34 36 34 33 34 33 32 34 37 35 35 30 25 23 17 10 9 8 5 3 7 9 10 12 11 11 12 12 12 11 11 11 12 13 14
7 6 7 16 22 26 32 34 33 33 31 31 32 32 34 33 32 35 33 30 27 24 13 14 13 9 7 5 7 10 11 12 11 10 12 12 10 11 12 13 13 13 14
7 6 7 11 18 25 29 30 28 28 28 29 31 33 31 30 30 35 33 31 28 18 17 16 14 11 10 8 9 10 12 14 14 13 11 12 12 13 13 14 15 16 15
6 7 6 10 16 17 18 22 23 26 26 28 29 30 31 32 34 33 32 29 24 22 21 19 15 12 10 9 12 13 14 16 17 17 15 14 14 15 16 16 16 16 15
7 6 6 6 10 13 18 20 22 25 27 27 29 32 35 35 34 32 29 27 24 23 21 18 14 10 10 12 15 17 19 20 20 19 18 16 18 18 17 16 15 16 16
5 5 4 4 9 12 14 16 20 21 22 24 29 33 30 29 27 25 25 24 23 20 17 14 11 8 12 18 21 23 24 24 22 20 20 19 19 18 16 16 15 15 15
2 2 2 4 7 14 18 21 24 25 24 26 27 25 24 25 22 21 21 21 20 17 12 7 4 14 19 20 21 20 22 22 24 24 23 21 19 18 16 15 15 14 15
8 8 8 8 3 6 13 18 17 18 21 22 17 16 16 16 16 17 19 19 17 11 6 0 12 20 18 20 18 18 21 23 25 27 24 22 21 18 16 15 15 15 15
8 8 9 12 14 10 7 3 3 8 11 10 11 12 14 16 19 21 17 12 7 8 7 11 11 14 21 20 21 21 21 22 25 26 24 23 20 19 17 16 17 19 18
7 8 13 17 17 17 14 16 16 16 17 18 17 18 21 25 21 15 8 8 11 11 10 12 14 19 22 21 20 19 20 22 23 25 24 23 22 20 18 17 19 20 20
13 15 18 19 20 17 17 22 23 25 25 25 27 24 19 15 9 8 2 6 14 15 15 16 17 20 23 21 20 19 20 21 24 25 24 24 24 21 19 19 19 21 21
16 20 23 22 19 18 22 26 27 27 23 20 16 12 8 2 5 11 15 15 11 14 17 20 21 20 17 17 17 17 22 24 26 28 28 26 26 24 23 21 21 22 17
17 20 22 23 21 23 28 25 21 14 11 8 5 2 3 3 3 5 9 12 15 17 20 22 24 24 22 21 20 19 19 21 25 29 30 27 25 24 26 24 24 20 18
18 21 24 26 23 21 21 21 13 12 12 12 11 8 6 6 7 10 12 15 16 17 21 23 27 31 30 26 23 24 22 20 23 26 27 29 27 26 26 28 26 21 21
19 23 24 22 23 21 20 17 13 11 11 12 12 11 11 12 12 13 14 16 19 22 25 26 25 30 33 34 29 27 26 25 25 27 26 26 28 28 28 29 27 27 25
19 22 21 20 20 19 19 16 14 11 13 13 13 14 14 15 17 17 18 19 20 20 23 24 26 26 29 30 34 34 32 31 27 28 26 25 25 23 24 28 30 30 29
19 20 21 22 20 21 20 18 16 14 14 14 14 15 17 18 20 21 24 22 21 21 21 23 24 31 30 36 36 36 38 38 35 25 22 23 22 23 23 23 25 29 31

GFSMW_925_spd_033.txt.gz
Wind_Speed
14 18 21 25 27 27 25 24 24 25 24 25 21 19 22 20 19 18 18 17 18 20 20 19 16 13 9 6 3 3 4 2 2 2 1 3 4 4 5 5 4 3 1
12 16 22 25 27 28 28 26 26 27 27 25 24 17 23 22 19 18 18 19 21 22 20 19 16 12 9 6 5 6 5 3 3 1 2 2 5 6 6 5 4 3 1
15 13 21 27 28 29 29 26 23 27 27 24 25 24 23 18 18 20 21 22 22 22 21 18 15 13 9 7 6 7 6 4 4 6 2 2 2 3 4 6 4 4 4
16 15 19 23 27 27 23 24 26 29 28 28 28 30 26 21 17 21 20 23 24 23 20 18 17 14 10 8 5 3 5 7 4 4 3 2 1 3 4 2 4 6 7
18 19 22 26 27 25 26 27 24 26 29 33 31 29 22 19 20 24 23 24 23 22 21 20 18 14 13 7 4 5 5 2 4 3 3 3 3 4 7 7 7 8 9
18 19 24 24 24 22 25 29 28 26 28 29 26 30 28 29 25 29 28 26 25 25 23 21 17 15 9 6 8 10 7 6 4 4 3 3 4 5 7 7 11 11 11
17 17 17 23 24 26 26 26 28 23 20 28 31 32 35 33 31 33 33 31 28 28 29 25 22 14 10 10 9 9 9 5 5 5 4 5 6 6 8 10 13 11 11
16 19 20 24 26 27 28 28 32 30 30 35 32 29 29 30 30 34 35 36 36 27 28 23 16 12 10 8 11 8 8 7 7 6 7 6 8 9 10 12 11 9 11
13 18 18 22 22 24 30 34 32 34 33 30 28 27 28 30 35 34 34 37 32 29 29 24 18 14 12 13 9 8 7 7 9 8 8 9 10 11 11 12 12 12 9
7 10 12 17 17 20 24 25 26 30 32 27 26 28 31 33 33 32 32 34 33 31 29 25 20 15 15 12 9 8 7 9 10 9 10 11 11 11 10 11 12 12 15
6 7 8 12 15 17 20 22 25 25 24 23 26 29 30 31 34 32 33 34 32 32 31 26 20 19 17 13 9 8 6 12 12 14 13 12 12 11 11 12 12 13 14
6 5 6 9 10 13 15 18 18 21 23 26 27 28 29 30 31 30 29 31 33 33 31 22 20 17 13 10 7 7 10 15 15 16 15 15 11 14 13 13 14 13 14
4 5 5 5 6 8 10 12 16 16 21 21 21 22 24 25 24 24 26 30 36 34 30 24 23 20 16 14 9 8 18 19 19 18 17 16 14 15 14 14 13 14 14
4 3 3 2 4 7 10 10 12 11 11 11 12 14 15 16 17 19 24 29 31 32 27 27 22 17 15 10 7 13 19 22 23 22 21 19 18 18 14 15 15 14 13
2 1 2 3 5 6 6 7 9 11 11 12 12 13 14 14 14 16 20 23 25 26 24 24 21 14 9 5 15 18 19 21 24 25 24 23 24 22 18 15 16 14 14
8 8 6 4 3 1 1 1 2 4 6 8 8 8 9 11 13 13 13 15 17 16 17 9 5 3 2 16 21 20 23 21 21 20 21 24 25 24 23 21 21 17 15
10 11 10 11 11 9 6 5 3 1 3 4 4 5 6 8 8 9 11 12 14 14 11 6 2 14 20 21 19 21 21 20 20 21 20 20 23 25 21 20 21 20 20
9 9 10 13 13 13 15 13 11 11 10 9 8 7 8 10 11 14 19 19 15 10 7 9 14 19 21 22 16 24 25 23 24 24 23 21 20 23 22 19 17 17 17
9 12 13 15 16 16 15 18 18 17 16 15 14 13 14 18 20 20 15 11 5 5 8 14 17 18 20 18 22 24 23 23 23 22 23 22 21 23 25 21 19 18 19
12 15 15 16 18 16 17 22 20 19 19 17 17 17 17 15 13 10 5 1 5 11 16 16 16 16 20 22 20 17 19 20 20 21 23 24 26 26 25 25 23 20 21
15 16 17 20 19 18 22 26 23 22 18 17 15 13 10 8 5 3 6 7 8 8 12 16 18 20 22 23 23 21 21 21 21 19 20 22 28 30 28 27 28 29 22
16 17 22 22 20 20 23 22 18 13 12 12 14 13 10 8 6 5 6 7 8 10 12 15 17 19 22 23 23 23 24 27 27 26 23 25 28 27 28 29 32 30 28
18 19 24 24 20 18 18 20 15 16 15 14 13 11 9 8 7 7 7 8 8 10 12 14 17 18 17 19 23 26 29 28 30 34 33 30 27 25 26 28 30 29 27
20 22 24 23 20 17 18 17 15 14 14 13 11 10 9 8 8 7 7 9 10 12 14 16 19 22 21 20 20 23 26 28 28 27 31 35 32 28 22 21 23 28 26
20 20 22 21 19 18 19 18 15 13 13 10 9 9 8 9 9 9 10 10 9 11 14 15 18 20 22 22 27 28 30 29 29 33 31 26 20 20 21 21 22 21 24
22 22 21 21 18 18 18 16 14 12 10 9 9 10 9 9 9 10 10 10 10 10 12 13 16 18 18 27 30 31 34 32 29 28 26 25 23 23 22 19 18 20 21

GFSMW_925_spd_039.txt.gz
Wind_Speed
18 21 24 24 25 29 33 29 24 23 21 18 18 17 17 18 16 17 17 16 14 14 14 13 13 13 12 12 11 9 8 6 2 5 10 10 9 7 8 8 7 7 7
17 23 26 28 28 29 29 29 26 23 22 20 19 18 19 21 19 16 13 14 15 15 16 14 15 15 14 13 12 11 8 5 4 5 9 6 7 11 12 11 9 9 8
18 20 26 30 30 30 31 29 28 25 23 20 19 18 18 14 16 18 17 17 18 17 17 16 15 15 15 15 15 11 9 6 6 7 6 4 5 6 12 13 10 10 10
18 19 23 29 33 33 31 30 28 26 25 23 21 21 21 18 19 19 17 17 17 17 17 16 15 16 16 15 13 12 9 6 6 7 9 10 8 4 5 11 14 12 11
19 20 22 29 32 32 33 32 30 28 26 29 25 22 21 19 19 19 17 19 16 18 18 17 18 17 16 14 13 12 10 10 7 9 11 9 10 10 8 8 9 14 11
20 20 25 29 29 31 32 32 31 30 28 24 23 20 17 20 15 15 18 20 18 19 21 21 20 18 20 16 15 13 10 7 10 11 11 10 11 11 12 10 13 12 14
21 20 21 22 27 30 30 30 31 31 30 26 23 31 28 22 19 20 22 20 22 22 23 25 26 24 21 16 16 14 13 11 12 11 10 11 13 12 12 12 13 13 15
21 21 22 25 27 28 30 30 30 30 31 27 31 30 25 34 32 27 24 23 24 23 29 29 27 23 19 18 17 15 10 10 12 11 10 11 13 12 12 12 13 9 15
16 22 22 27 28 29 30 32 30 30 31 27 33 33 31 30 27 25 23 25 26 29 31 29 28 23 21 23 19 15 14 13 13 12 12 11 13 13 13 13 13 14 9
8 11 14 23 29 28 28 29 30 31 30 30 27 30 18 23 24 23 26 24 22 24 25 28 29 25 25 19 17 13 11 12 12 11 8 10 14 14 15 14 15 15 17
3 4 7 13 16 21 26 26 26 27 30 30 29 21 19 21 22 22 21 23 19 22 22 24 23 24 19 19 16 13 11 13 8 5 9 15 16 17 16 15 16 17 17
0 4 6 8 10 13 16 19 22 25 26 31 29 28 21 18 20 21 21 21 21 21 23 21 22 21 19 20 18 14 14 9 4 5 17 20 20 19 20 19 19 20 19
4 6 6 7 8 11 14 17 18 20 20 28 29 26 21 18 16 16 17 15 17 17 18 19 22 21 20 17 17 14 10 3 9 17 16 20 21 22 22 22 21 21 23
7 6 7 7 9 10 12 13 13 13 14 14 13 11 7 8 8 8 10 13 14 16 16 19 19 19 18 19 15 15 9 15 14 13 17 22 25 25 25 25 24 24 24
7 7 8 9 11 12 12 13 12 11 10 10 10 9 8 8 8 8 9 10 11 11 15 17 17 17 16 17 15 15 18 15 15 19 21 25 27 29 30 29 28 27 26
5 5 7 9 10 13 14 14 14 13 12 12 11 9 9 8 8 7 7 8 10 12 14 14 17 19 17 18 18 18 18 13 15 22 24 25 26 30 31 35 37 41 34
7 8 9 9 12 13 15 16 15 15 15 15 13 12 11 11 10 10 10 10 10 12 14 19 17 18 17 17 18 18 14 25 28 27 25 25 26 27 28 30 33 33 36
10 11 11 14 15 17 18 18 17 17 16 15 14 13 12 12 11 11 11 11 11 13 14 14 11 7 7 11 13 19 24 20 19 21 24 26 27 28 29 29 31 31 29
13 15 17 18 18 18 19 20 19 18 17 16 15 14 14 15 14 13 13 11 10 9 8 5 4 7 11 14 17 12 13 18 21 22 23 25 27 29 30 30 28 31 35
16 18 19 19 19 18 19 19 19 18 18 17 17 16 15 15 14 12 11 9 8 7 4 4 6 10 7 8 7 9 13 17 20 22 24 26 27 29 30 31 29 30 34
19 19 18 18 19 19 19 19 19 18 18 18 17 15 13 13 11 10 8 6 5 5 3 2 2 3 5 6 5 8 9 14 19 22 24 25 29 32 34 33 31 32 31
21 19 19 18 18 19 19 20 19 18 17 16 15 14 12 10 10 9 7 5 4 2 1 1 3 3 3 5 6 9 13 17 20 23 25 27 32 39 42 42 38 37 36
21 20 20 19 17 17 17 18 18 17 17 16 15 13 12 9 7 6 5 4 3 2 2 3 4 4 5 6 11 15 19 19 21 24 27 33 39 39 35 33 32 35 31
20 21 22 20 19 17 16 18 17 16 16 15 14 11 10 8 6 6 4 4 3 3 3 3 5 6 7 8 12 17 19 20 22 25 29 34 35 34 32 32 29 27 27
22 22 20 19 19 18 18 16 16 16 15 13 11 10 8 7 7 7 6 5 6 4 3 3 5 6 6 9 14 17 19 21 23 28 26 25 23 26 26 27 26 27 25
23 22 21 21 20 18 18 16 15 14 14 13 10 8 7 6 5 4 6 5 4 5 4 3 3 4 5 12 16 17 19 22 21 21 21 20 22 24 26 27 29 28 31

GFSMW_925_spd_042.txt.gz
Wind_Speed
10 28 28 29 26 29 29 30 33 32 30 29 20 16 17 17 21 13 16 15 17 17 18 17 19 19 17 17 16 14 13 9 8 5 13 19 18 13 11 11 10 9 9
17 20 28 29 30 29 31 30 30 28 28 23 24 20 18 18 21 22 18 18 19 21 21 19 18 17 16 17 19 15 14 13 12 4 6 3 7 14 15 14 14 13 10
21 18 24 27 30 35 34 33 32 31 30 26 26 23 23 24 25 23 23 22 20 20 20 20 17 17 18 21 18 18 15 14 13 10 4 2 2 2 18 18 15 12 16
21 21 24 29 31 34 38 36 33 31 30 29 24 26 21 22 22 22 20 21 22 22 19 21 21 18 22 17 18 19 17 15 6 9 9 9 4 2 3 14 19 16 14
19 23 24 34 37 34 37 37 37 35 35 33 29 26 27 25 22 23 20 17 17 23 23 18 23 21 23 18 22 21 19 13 13 7 5 10 10 10 8 4 7 18 20
18 19 32 36 37 39 37 36 34 33 33 37 31 23 24 20 25 20 21 19 21 23 22 21 21 24 22 22 19 18 19 15 13 12 9 8 3 6 6 5 9 10 11
14 16 20 25 34 37 40 39 38 34 32 38 37 31 26 26 23 22 23 23 23 22 24 23 23 27 26 22 19 19 17 18 17 11 9 7 8 7 10 12 10 7 15
18 17 17 24 31 37 39 38 38 36 34 30 37 37 37 39 34 31 28 32 30 30 25 28 31 29 29 23 19 20 20 16 15 12 9 11 7 8 12 10 9 4 11
19 21 21 26 30 34 37 40 36 36 34 36 38 42 35 35 31 29 29 30 29 26 26 28 30 30 26 23 25 25 18 14 14 12 12 8 10 10 10 13 13 12 3
5 12 13 17 29 36 40 41 41 38 35 33 32 32 30 25 25 21 25 25 23 27 27 29 28 29 25 26 27 22 17 17 13 10 9 5 4 9 16 15 15 16 15
1 4 5 5 16 31 28 39 38 33 33 36 32 32 23 18 18 20 20 21 25 26 25 25 25 26 28 27 24 20 17 16 13 12 7 4 10 21 21 20 21 19 20
2 5 4 3 5 6 9 33 35 33 30 33 31 29 26 20 20 18 19 21 24 23 17 18 21 23 27 24 19 19 14 14 16 8 4 10 23 19 21 23 23 24 24
7 6 4 4 4 3 4 10 22 21 32 34 30 28 22 22 19 20 22 21 20 18 15 20 23 26 23 19 20 20 16 17 12 9 17 17 15 20 22 24 26 24 24
8 5 9 7 7 10 8 7 11 11 14 28 25 24 20 20 17 17 18 18 17 17 19 20 21 18 21 21 20 17 21 15 14 19 14 15 18 23 25 26 26 26 28
3 6 4 9 10 10 11 13 12 10 16 20 24 23 19 16 13 12 13 14 15 16 16 17 18 20 21 19 19 21 19 16 17 15 15 17 22 26 29 29 29 29 29
5 5 7 12 9 12 12 15 15 12 12 20 22 18 17 13 12 12 12 12 13 14 15 17 21 20 18 20 20 17 16 13 16 15 18 26 34 28 26 29 32 37 39
5 4 5 10 15 14 18 15 15 14 12 18 17 17 17 18 17 16 15 14 14 14 16 16 17 16 15 15 15 13 15 12 12 19 28 23 21 22 26 28 30 32 33
8 6 6 11 17 18 18 18 17 18 18 17 16 16 17 17 15 15 15 14 14 14 15 13 12 10 10 7 10 10 12 15 18 17 19 21 23 24 24 27 31 33 33
8 8 13 15 18 20 21 21 20 19 19 18 17 17 18 18 17 17 16 16 15 14 13 10 9 8 7 5 7 9 7 9 12 14 16 19 21 20 26 32 32 33 34
13 15 17 18 19 21 22 21 20 19 19 19 18 18 19 18 19 18 17 16 15 14 12 8 6 6 4 6 8 5 3 7 11 17 22 26 27 26 28 31 31 31 34
17 20 20 18 20 22 22 20 20 19 21 21 21 20 19 19 18 17 14 13 10 9 9 7 6 5 9 7 4 2 5 9 15 17 19 20 22 27 33 35 36 36 39
18 21 19 19 20 21 21 21 20 22 22 21 20 19 18 16 15 14 13 13 12 13 10 8 7 9 9 4 1 4 6 11 14 17 20 23 27 34 34 32 33 36 36
19 20 18 19 19 20 20 21 21 21 21 21 19 18 17 15 15 13 11 12 12 10 10 6 6 8 7 4 3 9 13 13 15 17 20 27 29 27 29 27 29 28 28
19 21 21 18 17 19 20 22 21 21 21 20 20 19 17 15 13 12 9 12 11 8 7 6 4 3 3 5 9 13 15 14 17 21 25 24 24 22 23 25 28 27 27
20 21 19 17 16 17 19 19 18 19 19 19 18 16 17 15 15 16 12 9 8 8 7 7 3 3 1 5 9 12 15 16 18 20 21 21 18 21 21 23 24 26 27
19 18 18 20 18 18 16 16 16 17 18 17 17 15 14 13 15 13 12 8 6 5 3 4 4 1 2 6 11 12 14 16 13 17 17 16 18 19 20 22 25 25 27

GFSMW_925_spd_048.txt.gz
Wind_Speed
11 16 18 20 20 19 19 20 31 32 34 34 34 30 28 34 33 30 30 25 18 16 18 18 18 19 25 25 24 20 19 17 18 14 9 14 16 15 13 13 14 13 15
10 14 17 22 24 24 26 25 25 36 33 32 31 33 34 37 40 36 37 35 27 20 23 22 22 23 26 27 25 25 23 17 19 11 4 1 5 14 17 17 19 19 17
16 14 19 21 24 24 29 31 30 35 35 38 36 29 30 29 32 35 38 39 29 29 29 27 25 26 28 31 29 29 29 26 22 20 9 2 4 2 11 23 23 22 22
16 16 20 24 27 29 30 31 35 35 37 33 32 30 27 27 32 32 35 37 31 30 26 28 27 27 32 33 30 29 30 27 24 17 20 7 6 3 2 11 18 23 24
20 20 22 31 32 31 31 34 34 36 34 37 33 31 27 27 27 31 34 37 38 35 32 30 29 31 34 34 29 28 31 31 27 20 11 17 9 9 4 3 7 18 23
21 21 31 31 32 34 34 34 35 35 38 38 36 33 32 30 33 36 39 40 40 40 35 34 34 34 34 28 28 28 31 31 26 21 19 17 8 13 9 4 7 9 12
20 21 21 26 31 34 37 36 37 36 37 38 40 42 40 35 36 42 40 38 38 39 37 35 35 29 29 29 28 30 31 31 25 27 27 22 20 16 12 12 5 6 8
22 23 24 31 36 39 40 40 41 41 43 43 43 45 44 37 41 42 39 42 41 40 35 33 32 31 30 30 29 29 30 29 27 27 20 23 16 14 10 5 5 2 5
21 24 23 33 35 38 42 46 44 44 45 46 42 42 40 40 37 42 41 42 42 40 36 35 32 29 30 29 30 29 28 28 28 21 21 16 14 12 7 4 2 1 2
17 20 19 29 35 39 44 45 44 48 45 36 36 39 40 38 36 39 44 45 43 43 37 34 29 30 30 28 28 30 29 27 22 21 19 17 14 13 13 10 10 14 13
17 18 20 30 36 37 35 41 43 39 39 41 45 48 46 42 38 36 41 42 43 40 37 34 29 29 30 30 27 29 28 24 21 22 21 20 17 16 13 12 13 16 19
11 17 18 29 33 35 36 39 41 39 44 47 43 40 31 34 32 34 34 25 31 37 34 28 25 28 31 27 28 28 25 24 26 25 23 17 18 15 12 10 10 16 19
7 7 10 16 25 30 31 36 39 43 41 38 38 37 30 34 38 32 32 40 37 32 30 26 27 27 25 25 27 27 26 28 27 25 19 21 16 11 10 7 11 17 24
7 6 10 16 24 28 28 31 35 37 39 38 38 35 34 37 37 40 39 41 42 34 30 28 27 26 25 25 26 26 27 25 23 19 20 18 13 7 13 13 17 25 23
9 9 8 9 12 17 24 29 34 31 35 35 36 34 36 38 40 37 37 34 36 33 31 28 24 23 23 24 24 25 24 23 21 20 18 15 11 14 10 16 17 18 20
11 12 12 9 11 18 24 28 29 33 34 30 29 27 31 34 33 30 28 30 28 27 26 25 24 23 23 22 22 25 24 22 20 17 12 9 13 9 12 12 11 9 11
10 10 14 13 15 22 29 25 27 30 29 27 26 25 28 29 30 32 31 29 26 25 25 23 23 22 21 20 21 19 20 18 15 9 7 8 7 9 10 10 13 16 19
9 9 8 8 15 22 23 26 26 27 26 24 23 24 27 27 28 29 29 27 25 24 21 21 21 21 21 20 19 17 18 14 10 7 7 7 4 7 11 16 19 21 22
10 9 16 18 22 24 25 27 24 26 27 25 25 27 29 28 27 25 25 23 22 19 19 20 21 22 23 20 19 18 15 12 9 7 5 4 6 9 11 16 19 21 21
9 11 18 22 25 25 29 26 22 22 21 26 28 29 29 29 28 27 28 24 23 24 24 22 19 20 22 19 18 16 14 13 10 7 5 6 8 8 10 12 14 18 20
11 20 20 20 24 31 30 22 23 20 26 28 29 28 27 27 27 26 24 24 25 26 25 23 21 20 19 18 15 13 14 12 9 5 4 5 5 8 9 8 9 12 19
9 17 18 18 25 29 30 21 18 25 28 28 27 25 24 24 23 24 24 26 28 28 25 24 21 18 17 17 16 15 11 8 4 2 3 5 5 4 4 4 9 14 17
9 14 17 19 19 23 27 22 20 26 27 26 23 23 22 20 22 24 25 26 27 25 24 25 24 21 17 15 11 7 3 1 1 1 2 3 3 2 3 8 10 13 17
8 17 19 15 15 21 24 30 30 29 28 26 25 24 22 20 20 20 20 21 21 23 23 21 20 21 15 10 7 4 1 1 1 1 2 3 3 3 7 9 8 12 14
11 17 17 16 16 23 25 29 30 30 28 28 24 21 20 20 18 16 13 16 13 18 23 20 21 21 12 6 3 1 0 2 2 3 4 4 5 7 8 7 8 13 15
15 16 16 20 19 22 23 25 27 29 30 25 23 24 26 26 26 26 24 19 14 11 12 12 11 10 8 5 2 2 2 3 2 3 6 5 6 8 6 8 10 12 14